Location: Sceptre
(50.8619°N, 109.2670°W)
Time: 22:07:13
(UTC+00:00)

Envisat - Pass Details

Date: 26 January 2022
Orbit: 764 x 765 km, 98.2° (Epoch: 21 May)

Event Time Altitude Azimuth Distance (km) Brightness Sun altitude
Rises 12:35:56 0° 13° (NNE) 3,244 6.4 -22.7°
Reaches altitude 10° 12:38:15 10° 11° (NNE) 2,313 5.6 -22.4°
Maximum altitude 12:43:20 74° 288° (WNW) 800 2.8 -21.6°
Drops below altitude 10° 12:48:23 10° 204° (SSW) 2,298 5.3 -20.8°
Sets 12:50:41 0° 202° (SSW) 3,220 6.1 -20.4°
